[[{"header":{"parameterUnit":"m.s-1","parameterCategory":1,"la1":30.2991,"la2":30.254,"lo1":-89.0895,"lo2":-89.0444,"dy":0.0017,"dx":0.0017,"nx":28,"ny":28,"refTime":"2023-09-09T09:00:00:Z","depth":0,"parameterNumber":2,"parameterNumberName":"U-component_of_WINDS"},"data":[0,0,0,0,0,0,0,0,0,0,0,0,0,0,0,0,0,0,0,0,0,0,0,0,0,0,0,0,0,0,0,0,0,0,0,0,0,0,0,0,0,0,0,0,0,0,0,0,0,0,0,0,0,0,0,0,0,0,-0.8655,-0.8655,0,-0.8638,-0.8638,-0.8637,-0.8598,-0.8597,-0.8596,-0.8596,-0.8579,-0.8579,-0.8579,0,0,0,0,0,0,0,0,0,0,0,0,0,-0.8656,-0.8656,-0.8655,-0.8655,-0.8655,-0.8638,-0.8638,-0.8637,-0.8598,-0.8597,-0.8596,-0.8595,-0.8579,-0.8579,-0.8579,0,0,0,0,0,0,0,0,0,0,0,0,0,-0.8649,-0.8656,-0.8655,-0.8633,-0.8631,-0.8638,-0.8638,-0.8637,-0.8598,-0.8597,-0.8596,-0.8595,-0.8578,-0.8579,-0.8579,-0.8607,0,0,-0.8581,-0.8581,0,0,0,0,0,0,0,0,-0.8649,-0.8649,-0.8637,-0.8635,-0.8632,-0.8619,-0.8631,-0.8627,-0.8599,-0.8611,-0.8595,-0.8594,-0.8593,-0.8592,-0.8592,-0.8606,-0.8605,-0.8581,-0.8581,-0.8581,-0.8581,0,0,0,0,0,0,0,-0.865,-0.8649,-0.8648,-0.8637,-0.8634,-0.8624,-0.8622,-0.863,-0.8609,-0.861,-0.8607,-0.8605,-0.8592,-0.8591,-0.8591,-0.8605,-0.8581,-0.8581,-0.8581,-0.8582,-0.864,-0.8642,0,0,0,0,0,0,-0.8653,-0.865,-0.8649,-0.8648,-0.8638,-0.8625,-0.8623,-0.8624,-0.8609,-0.8605,-0.8606,-0.8603,-0.8591,-0.859,-0.859,-0.8621,-0.8581,-0.8582,-0.8582,-0.8639,-0.8641,-0.8642,0,0,0,0,0,0,-0.8653,-0.8654,-0.865,-0.8648,-0.8647,-0.8627,-0.8629,-0.8625,-0.8624,-0.8606,-0.8602,-0.861,-0.859,-0.859,-0.8603,-0.862,-0.8582,-0.8582,-0.8638,-0.864,-0.8641,-0.8684,0,0,0,0,0,0,-0.8654,-0.8654,-0.8664,-0.8649,-0.8647,-0.8662,-0.863,-0.8625,-0.8625,-0.8621,-0.8608,-0.8605,-0.8589,-0.8602,-0.8603,-0.862,-0.8583,-0.8636,-0.8638,-0.8641,-0.8681,-0.8687,-0.8692,0,0,0,0,0,-0.8654,-0.8677,-0.8665,-0.8665,-0.8659,-0.8664,-0.8663,-0.8643,-0.8627,-0.8637,-0.8625,-0.8606,-0.8618,-0.8604,-0.8605,-0.8622,-0.8635,-0.8638,-0.864,-0.8678,-0.8686,-0.8692,0,0,0,0,0,0,-0.8695,-0.8674,-0.8661,-0.8679,-0.8673,-0.8657,-0.8669,-0.8652,-0.8651,-0.8648,-0.8624,-0.8621,-0.8638,-0.8631,-0.8616,-0.8647,-0.8623,-0.8626,-0.8652,-0.8659,-0.8664,-0.8666,-0.8583,0,0,0,0,0,-0.8706,-0.8711,-0.8693,-0.8711,-0.8709,-0.869,-0.8691,-0.8676,-0.8669,-0.8667,-0.8656,-0.865,-0.8653,-0.8655,-0.8656,-0.8679,-0.8676,-0.8691,-0.8697,-0.8702,-0.8705,-0.8717,-0.8724,-0.8651,-0.8651,-0.8651,0,0,-0.873,-0.8719,-0.8724,-0.8719,-0.8713,-0.8719,-0.8688,-0.8695,-0.87,-0.8668,-0.868,-0.8672,-0.8664,-0.8682,-0.8689,-0.8677,-0.8724,-0.8706,-0.871,-0.871,-0.8721,-0.8728,-0.8734,-0.8653,-0.8653,-0.8653,0,0,-0.8776,-0.8768,-0.8783,-0.8777,-0.8767,-0.8754,-0.8758,-0.8743,-0.8737,-0.8748,-0.8724,-0.8729,-0.8734,-0.8729,-0.8728,-0.8771,-0.8754,-0.8772,-0.8803,-0.8814,-0.882,-0.8825,-0.8841,-0.8847,-0.8775,-0.8775,-0.8776,0,-0.8807,-0.8815,-0.8792,-0.8801,-0.88,-0.8771,-0.8786,-0.8781,-0.8773,-0.8773,-0.8759,-0.8764,-0.8757,-0.8774,-0.8784,-0.8783,-0.8787,-0.8774,-0.8821,-0.8826,-0.883,-0.8845,-0.8851,-0.8778,-0.8778,-0.8777,-0.8777,0,-0.8853,-0.8859,-0.8871,-0.8864,-0.8864,-0.8876,-0.8856,-0.8859,-0.8844,-0.8832,-0.8844,-0.8834,-0.8833,-0.8836,-0.8821,-0.885,-0.8843,-0.8825,-0.88,-0.884,-0.8854,-0.8859,-0.8781,-0.878,-0.878,-0.8779,0,0,-0.8926,-0.8905,-0.891,-0.8907,-0.8894,-0.8898,-0.8908,-0.8907,-0.891,-0.8905,-0.8914,-0.8918,-0.8901,-0.8899,-0.8884,-0.8894,-0.893,-0.8875,-0.8875,-0.8887,-0.8962,-0.8976,-0.8984,-0.8918,-0.8919,-0.892,-0.8963,0,-0.897,-0.8986,-0.8966,-0.8988,-0.8993,-0.8965,-0.8974,-0.8967,-0.8956,-0.8959,-0.8947,-0.8951,-0.8928,-0.8927,-0.8936,-0.8924,-0.8945,-0.892,-0.8926,-0.8927,-0.893,-0.8991,-0.9006,-0.9047,-0.8968,-0.8969,-0.897,0,-0.9024,-0.9021,-0.9042,-0.9028,-0.9029,-0.9038,-0.9035,-0.9038,-0.903,-0.9021,-0.9019,-0.9,-0.901,-0.8985,-0.8998,-0.8981,-0.8982,-0.8977,-0.8978,-0.8979,-0.8952,-0.8994,-0.906,-0.9067,-0.8978,-0.8977,-0.8977,0,-0.9076,-0.9077,-0.909,-0.9088,-0.9071,-0.9078,-0.9071,-0.9062,-0.9062,-0.9059,-0.9059,-0.9057,-0.9057,-0.9056,-0.9038,-0.9021,-0.9054,-0.9027,-0.9047,-0.9048,-0.9056,-0.9056,-0.9125,-0.9055,-0.9055,-0.9055,-0.9055,0,-0.9127,-0.9142,-0.9114,-0.9122,-0.9137,-0.9114,-0.913,-0.912,-0.9112,-0.9118,-0.9093,-0.91,-0.9075,-0.9078,-0.9064,-0.9077,-0.9077,-0.9071,-0.9067,-0.9074,-0.9075,-0.9075,-0.9072,-0.9057,-0.9056,-0.9056,-0.9056,0,-0.9189,-0.917,-0.9183,-0.9166,-0.9162,-0.9174,-0.9159,-0.9166,-0.9153,-0.9162,-0.9162,-0.9142,-0.9145,-0.9126,-0.9126,-0.9116,-0.9137,-0.9128,-0.914,-0.9138,-0.9159,-0.9158,-0.9231,-0.924,-0.9164,-0.9165,-0.9166,0,-0.9224,-0.9234,-0.9218,-0.922,-0.9215,-0.9218,-0.9218,-0.9195,-0.9197,-0.9187,-0.9196,-0.9197,-0.9196,-0.9202,-0.9188,-0.9188,-0.9179,-0.9204,-0.9179,-0.9185,-0.918,-0.918,-0.9182,-0.921,-0.9211,-0.9212,-0.9213,0,-0.9288,-0.9278,-0.9279,-0.9276,-0.9277,-0.9274,-0.9269,-0.9272,-0.9248,-0.925,-0.9252,-0.9252,-0.9251,-0.9253,-0.9249,-0.9243,-0.9224,-0.922,-0.9225,-0.9233,-0.924,-0.9237,-0.9156,-0.9219,-0.9219,-0.9218,-0.9218,-0.9218,-0.9338,-0.9346,-0.9336,-0.9337,-0.9331,-0.9327,-0.9333,-0.9321,-0.9322,-0.932,-0.9306,-0.9311,-0.9302,-0.9296,-0.9291,-0.9294,-0.9282,-0.9289,-0.9291,-0.9293,-0.9298,-0.9238,-0.9294,-0.9293,-0.9293,-0.9293,-0.9293,0,-0.9402,-0.9394,-0.9395,-0.9389,-0.939,-0.9371,-0.9365,-0.9368,-0.9372,-0.9365,-0.9365,-0.9368,-0.9369,-0.9354,-0.9354,-0.936,-0.9351,-0.936,-0.936,-0.9359,-0.9308,-0.9305,-0.9367,-0.9367,-0.9367,-0.9367,-0.9367,-0.9367,-0.9435,-0.9448,-0.9437,-0.9446,-0.9438,-0.9442,-0.9441,-0.9437,-0.9431,-0.9435,-0.9436,-0.9426,-0.9416,-0.9414,-0.9414,-0.941,-0.9411,-0.9424,-0.9417,-0.937,-0.9363,-0.9356,-0.9352,-0.9424,-0.9424,-0.9467,-0.9468,-0.9468]},{"header":{"parameterUnit":"m.s-1","parameterCategory":1,"la1":30.2991,"la2":30.254,"lo1":-89.0895,"lo2":-89.0444,"dy":0.0017,"dx":0.0017,"nx":28,"ny":28,"refTime":"2023-09-09T09:00:00:Z","depth":0,"parameterNumber":3,"parameterNumberName":"V-component_of_WINDS"},"data":[0,0,0,0,0,0,0,0,0,0,0,0,0,0,0,0,0,0,0,0,0,0,0,0,0,0,0,0,0,0,0,0,0,0,0,0,0,0,0,0,0,0,0,0,0,0,0,0,0,0,0,0,0,0,0,0,0,0,-2.8876,-2.8876,0,-2.8861,-2.8861,-2.8861,-2.8807,-2.8806,-2.8805,-2.8804,-2.8789,-2.879,-2.879,0,0,0,0,0,0,0,0,0,0,0,0,0,-2.8858,-2.8859,-2.8876,-2.8876,-2.8876,-2.8861,-2.8861,-2.8861,-2.8807,-2.8806,-2.8804,-2.8803,-2.8789,-2.879,-2.879,0,0,0,0,0,0,0,0,0,0,0,0,0,-2.8857,-2.8859,-2.8876,-2.8847,-2.8844,-2.8861,-2.8861,-2.8861,-2.8808,-2.8806,-2.8804,-2.8802,-2.8788,-2.8789,-2.8791,-2.8834,0,0,-2.8794,-2.8795,0,0,0,0,0,0,0,0,-2.8857,-2.8858,-2.8852,-2.8849,-2.8846,-2.8834,-2.8849,-2.8852,-2.8808,-2.8822,-2.8804,-2.8801,-2.8806,-2.8805,-2.8806,-2.8834,-2.8833,-2.8794,-2.8795,-2.8795,-2.8796,0,0,0,0,0,0,0,-2.8857,-2.8858,-2.887,-2.8852,-2.8848,-2.8835,-2.8833,-2.885,-2.8824,-2.882,-2.8816,-2.8815,-2.8804,-2.8805,-2.8806,-2.8833,-2.8794,-2.8795,-2.8796,-2.8796,-2.8897,-2.8898,0,0,0,0,0,0,-2.8861,-2.8859,-2.8871,-2.887,-2.8847,-2.8837,-2.8835,-2.884,-2.8824,-2.8819,-2.8817,-2.8813,-2.8804,-2.8804,-2.8805,-2.8856,-2.8795,-2.8796,-2.8797,-2.8895,-2.8897,-2.8899,0,0,0,0,0,0,-2.8861,-2.8863,-2.8871,-2.8863,-2.8863,-2.8839,-2.8846,-2.8841,-2.8842,-2.8821,-2.8816,-2.8824,-2.8803,-2.8803,-2.8828,-2.8855,-2.8797,-2.8798,-2.8892,-2.8895,-2.8898,-2.8958,0,0,0,0,0,0,-2.8861,-2.8863,-2.8879,-2.8864,-2.8864,-2.8894,-2.8847,-2.8842,-2.8844,-2.8839,-2.8826,-2.8822,-2.8802,-2.8826,-2.8829,-2.8855,-2.8799,-2.889,-2.8894,-2.8897,-2.8954,-2.8963,-2.8971,0,0,0,0,0,-2.8861,-2.8897,-2.888,-2.8882,-2.8883,-2.8896,-2.8896,-2.8871,-2.8847,-2.8863,-2.885,-2.8823,-2.8851,-2.8829,-2.8832,-2.8859,-2.8888,-2.8893,-2.8897,-2.895,-2.8961,-2.8971,0,0,0,0,0,0,-2.8916,-2.8894,-2.8876,-2.8908,-2.8904,-2.8887,-2.8906,-2.8884,-2.8887,-2.8881,-2.8851,-2.8849,-2.8878,-2.887,-2.8846,-2.8901,-2.8865,-2.887,-2.8905,-2.8915,-2.8924,-2.8925,-2.88,0,0,0,0,0,-2.8931,-2.8943,-2.8924,-2.8954,-2.8953,-2.893,-2.8935,-2.8916,-2.8911,-2.8909,-2.8897,-2.8894,-2.8902,-2.8908,-2.8914,-2.8952,-2.8949,-2.8972,-2.8981,-2.8988,-2.8993,-2.9014,-2.9024,-2.8914,-2.8914,-2.8914,0,0,-2.8964,-2.8954,-2.8963,-2.8965,-2.8959,-2.8973,-2.8929,-2.8945,-2.8954,-2.8911,-2.8934,-2.8926,-2.8919,-2.8951,-2.8965,-2.8946,-2.9023,-2.8994,-2.8999,-2.9001,-2.902,-2.903,-2.9039,-2.8917,-2.8916,-2.8916,0,0,-2.9031,-2.9024,-2.9049,-2.9045,-2.9038,-2.9023,-2.9029,-2.9015,-2.9008,-2.9031,-2.8999,-2.901,-2.9025,-2.9022,-2.9023,-2.909,-2.9066,-2.9093,-2.9138,-2.9159,-2.9167,-2.9175,-2.92,-2.9209,-2.9098,-2.9098,-2.9098,0,-2.9073,-2.9091,-2.9065,-2.9083,-2.9085,-2.9047,-2.9073,-2.907,-2.9066,-2.9068,-2.9048,-2.9066,-2.9059,-2.909,-2.9107,-2.9108,-2.9115,-2.9095,-2.9168,-2.9175,-2.9182,-2.9206,-2.9215,-2.9102,-2.9101,-2.9101,-2.9101,0,-2.9144,-2.9157,-2.9178,-2.9176,-2.918,-2.9202,-2.9179,-2.9187,-2.9168,-2.9156,-2.9179,-2.917,-2.9174,-2.918,-2.9162,-2.9209,-2.9198,-2.9173,-2.9137,-2.9197,-2.9218,-2.9227,-2.9107,-2.9105,-2.9104,-2.9103,0,0,-2.9244,-2.9228,-2.9236,-2.9235,-2.9225,-2.9235,-2.9256,-2.926,-2.9268,-2.9266,-2.9283,-2.9297,-2.9275,-2.9275,-2.9257,-2.9275,-2.933,-2.9247,-2.9247,-2.9264,-2.9383,-2.9403,-2.9414,-2.9314,-2.9316,-2.9317,-2.9384,0,-2.9309,-2.9343,-2.932,-2.9358,-2.9371,-2.9336,-2.9354,-2.935,-2.9339,-2.9349,-2.9336,-2.9347,-2.9316,-2.9316,-2.9332,-2.932,-2.9354,-2.9315,-2.933,-2.9331,-2.9334,-2.9425,-2.9445,-2.9509,-2.9393,-2.9394,-2.9395,0,-2.9388,-2.9391,-2.9431,-2.942,-2.9424,-2.9441,-2.9444,-2.9454,-2.9449,-2.944,-2.9441,-2.9418,-2.9438,-2.9402,-2.943,-2.9404,-2.9409,-2.9404,-2.9406,-2.9407,-2.9367,-2.943,-2.9529,-2.9539,-2.9408,-2.9407,-2.9406,0,-2.9459,-2.9473,-2.9499,-2.9499,-2.9486,-2.9499,-2.9494,-2.9488,-2.9493,-2.9495,-2.9498,-2.9503,-2.9506,-2.9511,-2.949,-2.9466,-2.9521,-2.9483,-2.9515,-2.9516,-2.9528,-2.9528,-2.9631,-2.953,-2.953,-2.953,-2.953,0,-2.9534,-2.956,-2.9531,-2.9547,-2.9575,-2.9549,-2.9578,-2.9569,-2.9564,-2.9578,-2.9548,-2.9562,-2.9533,-2.9545,-2.9529,-2.9555,-2.9556,-2.955,-2.9545,-2.9553,-2.9554,-2.9556,-2.9552,-2.9533,-2.9532,-2.9532,-2.9531,0,-2.9618,-2.9599,-2.9625,-2.9612,-2.9609,-2.9631,-2.9619,-2.9634,-2.9621,-2.964,-2.9642,-2.9622,-2.9634,-2.9614,-2.9623,-2.9612,-2.9649,-2.9637,-2.9651,-2.9648,-2.9681,-2.9679,-2.979,-2.9804,-2.9694,-2.9695,-2.9695,0,-2.9667,-2.9687,-2.9676,-2.9683,-2.9681,-2.9693,-2.9698,-2.9673,-2.968,-2.9677,-2.9692,-2.9701,-2.9708,-2.9728,-2.9715,-2.9722,-2.9711,-2.9749,-2.9711,-2.9719,-2.9712,-2.9712,-2.9714,-2.9757,-2.9758,-2.976,-2.976,0,-2.9758,-2.9748,-2.9756,-2.9762,-2.9769,-2.9772,-2.9773,-2.9781,-2.9755,-2.9764,-2.9776,-2.9781,-2.9791,-2.9801,-2.9805,-2.98,-2.9777,-2.9772,-2.978,-2.9789,-2.9796,-2.9794,-2.9673,-2.977,-2.9769,-2.9768,-2.9768,-2.9767,-2.9826,-2.9843,-2.9838,-2.9849,-2.9847,-2.9849,-2.9862,-2.9852,-2.9861,-2.9868,-2.9852,-2.9869,-2.9865,-2.9868,-2.9866,-2.9878,-2.9861,-2.9872,-2.9875,-2.9879,-2.9885,-2.9794,-2.9879,-2.9878,-2.9878,-2.9878,-2.9878,0,-2.9916,-2.9911,-2.9922,-2.9925,-2.9933,-2.991,-2.9911,-2.992,-2.9934,-2.9933,-2.994,-2.9954,-2.9964,-2.9952,-2.996,-2.9972,-2.9962,-2.9975,-2.9974,-2.9974,-2.9899,-2.9892,-2.9984,-2.9984,-2.9984,-2.9984,-2.9984,-2.9984,-2.9964,-2.999,-2.998,-3.0006,-3.0001,-3.0017,-3.0019,-3.0021,-3.002,-3.0038,-3.0046,-3.0038,-3.0032,-3.004,-3.0048,-3.0044,-3.0049,-3.0067,-3.0059,-2.9989,-2.9979,-2.9969,-2.9962,-3.0068,-3.0068,-3.0133,-3.0134,-3.0134]}]]